Time,TemperatureF,DewpointF,PressureIn,WindDirection,WindDirectionDegrees,WindSpeedMPH,WindSpeedGustMPH,Humidity,HourlyPrecipIn,Conditions,Clouds,dailyrainin,SolarRadiationWatts/m^2,SoftwareType,DateUTC
2013-04-07 00:02:00,31.9,25.0,30.31,SSE,161,0.0,-999.0,77,-99.99,,,0.00,0,weatherlink.com 1.10,2013-04-07 04:02:00,
2013-04-07 00:17:00,31.4,25.0,30.31,SSE,161,0.0,-999.0,78,-99.99,,,0.00,0,weatherlink.com 1.10,2013-04-07 04:17:00,
2013-04-07 00:32:00,30.9,25.0,30.31,SSE,161,0.0,-999.0,79,-99.99,,,0.00,0,weatherlink.com 1.10,2013-04-07 04:32:00,
2013-04-07 00:47:00,30.6,25.0,30.30,SSE,161,0.0,-999.0,81,-99.99,,,0.00,0,weatherlink.com 1.10,2013-04-07 04:47:00,
2013-04-07 01:02:00,30.2,25.0,30.30,SSE,161,0.0,-999.0,81,-99.99,,,0.00,0,weatherlink.com 1.10,2013-04-07 05:02:00,
2013-04-07 01:17:00,29.9,25.0,30.30,SSE,161,0.0,-999.0,83,-99.99,,,0.00,0,weatherlink.com 1.10,2013-04-07 05:17:00,
2013-04-07 01:47:00,29.2,25.0,30.30,SSE,161,0.0,-999.0,84,-99.99,,,0.00,0,weatherlink.com 1.10,2013-04-07 05:47:00,
2013-04-07 02:02:00,28.8,25.0,30.30,SSE,161,0.0,-999.0,84,-99.99,,,0.00,0,weatherlink.com 1.10,2013-04-07 06:02:00,
2013-04-07 04:39:00,28.1,25.0,30.26,SSE,161,0.0,-999.0,89,-99.99,,,0.00,0,weatherlink.com 1.10,2013-04-07 08:39:00,
2013-04-07 04:47:00,28.0,25.0,30.26,SSE,161,0.0,-999.0,89,-99.99,,,0.00,0,weatherlink.com 1.10,2013-04-07 08:47:00,
2013-04-07 05:02:00,27.9,25.0,30.26,SSE,161,0.0,-999.0,89,-99.99,,,0.00,0,weatherlink.com 1.10,2013-04-07 09:02:00,
2013-04-07 05:18:00,27.9,25.0,30.27,SSE,161,0.0,-999.0,90,-99.99,,,0.00,0,weatherlink.com 1.10,2013-04-07 09:18:00,
2013-04-07 05:33:00,27.9,25.0,30.27,SSE,161,0.0,-999.0,90,-99.99,,,0.00,0,weatherlink.com 1.10,2013-04-07 09:33:00,
2013-04-07 05:48:00,28.0,26.0,30.27,SSE,161,0.0,-999.0,90,-99.99,,,0.00,0,weatherlink.com 1.10,2013-04-07 09:48:00,
2013-04-07 06:03:00,28.1,26.0,30.28,SSE,161,0.0,-999.0,91,-99.99,,,0.00,0,weatherlink.com 1.10,2013-04-07 10:03:00,
2013-04-07 06:18:00,28.1,26.0,30.28,SSE,161,0.0,-999.0,91,-99.99,,,0.00,5,weatherlink.com 1.10,2013-04-07 10:18:00,
2013-04-07 06:33:00,28.2,26.0,30.29,SSE,161,0.0,-999.0,91,-99.99,,,0.00,12,weatherlink.com 1.10,2013-04-07 10:33:00,
2013-04-07 06:48:00,28.3,26.0,30.29,SSE,161,0.0,-999.0,92,-99.99,,,0.00,25,weatherlink.com 1.10,2013-04-07 10:48:00,
2013-04-07 07:03:00,28.4,26.0,30.30,SSE,161,0.0,-999.0,92,-99.99,,,0.00,37,weatherlink.com 1.10,2013-04-07 11:03:00,
2013-04-07 07:18:00,29.1,27.0,30.29,SSE,161,0.0,-999.0,93,-99.99,,,0.00,54,weatherlink.com 1.10,2013-04-07 11:18:00,
2013-04-07 07:33:00,31.6,30.0,30.30,SSE,148,0.0,-999.0,94,-99.99,,,0.00,93,weatherlink.com 1.10,2013-04-07 11:33:00,
2013-04-07 07:48:00,33.9,32.0,30.30,SE,146,0.0,-999.0,94,-99.99,,,0.00,162,weatherlink.com 1.10,2013-04-07 11:48:00,
2013-04-07 08:18:00,38.6,36.0,30.31,SSE,165,0.0,-999.0,91,-99.99,,,0.00,265,weatherlink.com 1.10,2013-04-07 12:18:00,
2013-04-07 08:33:00,40.3,36.0,30.31,SSW,209,4.0,-999.0,83,-99.99,,,0.00,98,weatherlink.com 1.10,2013-04-07 12:33:00,
2013-04-07 08:48:00,41.5,33.0,30.30,SSW,212,2.0,-999.0,73,-99.99,,,0.00,232,weatherlink.com 1.10,2013-04-07 12:48:00,
2013-04-07 09:03:00,42.6,32.0,30.30,SSE,167,6.0,-999.0,66,-99.99,,,0.00,207,weatherlink.com 1.10,2013-04-07 13:03:00,
2013-04-07 09:18:00,43.3,30.0,30.29,SW,220,0.0,-999.0,60,-99.99,,,0.00,193,weatherlink.com 1.10,2013-04-07 13:18:00,
2013-04-07 09:33:00,44.1,29.0,30.28,South,180,3.0,-999.0,56,-99.99,,,0.00,338,weatherlink.com 1.10,2013-04-07 13:33:00,
2013-04-07 09:48:00,45.0,28.0,30.28,WSW,240,4.0,-999.0,52,-99.99,,,0.00,485,weatherlink.com 1.10,2013-04-07 13:48:00,
2013-04-07 10:34:00,47.9,30.0,30.27,SE,130,2.0,-999.0,50,-99.99,,,0.00,684,weatherlink.com 1.10,2013-04-07 14:34:00,
2013-04-07 10:49:00,48.4,30.0,30.26,South,178,2.0,-999.0,49,-99.99,,,0.00,708,weatherlink.com 1.10,2013-04-07 14:49:00,
2013-04-07 11:04:00,48.9,28.0,30.26,SW,223,4.0,-999.0,45,-99.99,,,0.00,752,weatherlink.com 1.10,2013-04-07 15:04:00,
2013-04-07 11:19:00,49.8,27.0,30.24,East,88,6.0,-999.0,41,-99.99,,,0.00,861,weatherlink.com 1.10,2013-04-07 15:19:00,
2013-04-07 11:34:00,49.8,28.0,30.24,SE,127,17.0,-999.0,43,-99.99,,,0.00,942,weatherlink.com 1.10,2013-04-07 15:34:00,
2013-04-07 12:04:00,49.2,27.0,30.21,SE,144,5.0,-999.0,42,-99.99,,,0.00,452,weatherlink.com 1.10,2013-04-07 16:04:00,
2013-04-07 12:19:00,49.7,27.0,30.20,ESE,109,12.0,-999.0,42,-99.99,,,0.00,434,weatherlink.com 1.10,2013-04-07 16:19:00,
2013-04-07 12:34:00,49.9,26.0,30.19,South,171,6.0,-999.0,39,-99.99,,,0.00,744,weatherlink.com 1.10,2013-04-07 16:34:00,
2013-04-07 12:49:00,49.7,22.0,30.18,SSE,150,7.0,-999.0,34,-99.99,,,0.00,510,weatherlink.com 1.10,2013-04-07 16:49:00,
2013-04-07 13:04:00,50.0,20.0,30.18,South,182,9.0,-999.0,31,-99.99,,,0.00,642,weatherlink.com 1.10,2013-04-07 17:04:00,
2013-04-07 13:19:00,50.1,23.0,30.18,SSE,161,11.0,-999.0,35,-99.99,,,0.00,345,weatherlink.com 1.10,2013-04-07 17:19:00,
2013-04-07 13:34:00,50.1,28.0,30.17,WSW,243,1.0,-999.0,42,-99.99,,,0.00,390,weatherlink.com 1.10,2013-04-07 17:34:00,
2013-04-07 13:49:00,50.1,30.0,30.15,SSW,195,7.0,-999.0,47,-99.99,,,0.00,487,weatherlink.com 1.10,2013-04-07 17:49:00,
2013-04-07 14:04:00,50.6,31.0,30.14,South,184,6.0,-999.0,48,-99.99,,,0.00,863,weatherlink.com 1.10,2013-04-07 18:04:00,
2013-04-07 14:19:00,51.2,32.0,30.14,WSW,237,6.0,-999.0,49,-99.99,,,0.00,675,weatherlink.com 1.10,2013-04-07 18:19:00,
2013-04-07 14:34:00,50.7,33.0,30.13,WSW,240,5.0,-999.0,52,-99.99,,,0.00,816,weatherlink.com 1.10,2013-04-07 18:34:00,
2013-04-07 14:49:00,50.2,34.0,30.12,SSE,150,12.0,-999.0,54,-99.99,,,0.00,557,weatherlink.com 1.10,2013-04-07 18:49:00,
2013-04-07 15:04:00,49.8,34.0,30.12,SW,229,7.0,-999.0,55,-99.99,,,0.00,496,weatherlink.com 1.10,2013-04-07 19:04:00,
2013-04-07 15:19:00,49.6,35.0,30.12,SSW,198,7.0,-999.0,57,-99.99,,,0.00,332,weatherlink.com 1.10,2013-04-07 19:19:00,
2013-04-07 15:34:00,49.4,35.0,30.11,SE,142,10.0,-999.0,58,-99.99,,,0.00,330,weatherlink.com 1.10,2013-04-07 19:34:00,
2013-04-07 15:49:00,48.8,35.0,30.09,SSE,164,9.0,-999.0,60,-99.99,,,0.00,265,weatherlink.com 1.10,2013-04-07 19:49:00,
2013-04-07 16:04:00,48.8,36.0,30.10,NNE,32,3.0,-999.0,62,-99.99,,,0.00,311,weatherlink.com 1.10,2013-04-07 20:04:00,
2013-04-07 16:19:00,48.9,36.0,30.08,SSE,159,5.0,-999.0,62,-99.99,,,0.00,513,weatherlink.com 1.10,2013-04-07 20:19:00,
2013-04-07 16:34:00,49.4,37.0,30.08,SW,234,4.0,-999.0,63,-99.99,,,0.00,482,weatherlink.com 1.10,2013-04-07 20:34:00,
2013-04-07 16:49:00,49.0,37.0,30.08,SSE,162,11.0,-999.0,63,-99.99,,,0.00,257,weatherlink.com 1.10,2013-04-07 20:49:00,
2013-04-07 17:04:00,48.5,37.0,30.08,SSW,209,2.0,-999.0,65,-99.99,,,0.00,188,weatherlink.com 1.10,2013-04-07 21:04:00,
2013-04-07 17:19:00,48.3,37.0,30.07,SSE,163,11.0,-999.0,66,-99.99,,,0.00,123,weatherlink.com 1.10,2013-04-07 21:19:00,
2013-04-07 17:34:00,48.2,38.0,30.07,South,175,17.0,-999.0,67,-99.99,,,0.00,120,weatherlink.com 1.10,2013-04-07 21:34:00,
2013-04-07 17:49:00,48.4,38.0,30.05,SE,133,14.0,-999.0,68,-99.99,,,0.00,174,weatherlink.com 1.10,2013-04-07 21:49:00,
2013-04-07 18:05:00,48.6,38.0,30.04,SW,223,3.0,-999.0,68,-99.99,,,0.00,121,weatherlink.com 1.10,2013-04-07 22:05:00,
2013-04-07 18:19:00,48.1,39.0,30.02,South,190,4.0,-999.0,70,-99.99,,,0.00,60,weatherlink.com 1.10,2013-04-07 22:19:00,
2013-04-07 18:34:00,47.6,39.0,30.03,SE,138,8.0,-999.0,71,-99.99,,,0.00,37,weatherlink.com 1.10,2013-04-07 22:34:00,
2013-04-07 18:49:00,47.2,39.0,30.03,SSW,199,5.0,-999.0,73,-99.99,,,0.00,23,weatherlink.com 1.10,2013-04-07 22:49:00,
2013-04-07 19:05:00,46.9,39.0,30.04,South,169,6.0,-999.0,74,-99.99,,,0.00,7,weatherlink.com 1.10,2013-04-07 23:05:00,
2013-04-07 19:19:00,46.9,39.0,30.05,SSE,152,11.0,-999.0,74,-99.99,,,0.00,0,weatherlink.com 1.10,2013-04-07 23:19:00,
2013-04-07 19:34:00,47.0,39.0,30.06,SSE,157,13.0,-999.0,75,-99.99,,,0.00,0,weatherlink.com 1.10,2013-04-07 23:34:00,
2013-04-07 19:49:00,47.0,40.0,30.05,SW,220,5.0,-999.0,76,-99.99,,,0.00,0,weatherlink.com 1.10,2013-04-07 23:49:00,
2013-04-07 20:05:00,46.9,40.0,30.05,South,187,4.0,-999.0,77,-99.99,,,0.00,0,weatherlink.com 1.10,2013-04-08 00:05:00,
2013-04-07 20:20:00,47.0,40.0,30.05,SSW,196,4.0,-999.0,78,-99.99,,,0.00,0,weatherlink.com 1.10,2013-04-08 00:20:00,
2013-04-07 20:34:00,47.1,41.0,30.04,SW,223,3.0,-999.0,79,-99.99,,,0.00,0,weatherlink.com 1.10,2013-04-08 00:34:00,
2013-04-07 20:49:00,47.3,41.0,30.05,SE,134,0.0,-999.0,80,-99.99,,,0.00,0,weatherlink.com 1.10,2013-04-08 00:49:00,
2013-04-07 21:04:00,47.3,41.0,30.05,WSW,248,5.0,-999.0,80,-99.99,,,0.00,0,weatherlink.com 1.10,2013-04-08 01:04:00,
2013-04-07 21:19:00,47.2,42.0,30.05,SE,143,5.0,-999.0,81,-99.99,,,0.00,0,weatherlink.com 1.10,2013-04-08 01:19:00,
2013-04-07 21:34:00,47.3,42.0,30.04,SSE,151,7.0,-999.0,82,-99.99,,,0.00,0,weatherlink.com 1.10,2013-04-08 01:34:00,
2013-04-07 21:50:00,47.3,42.0,30.04,SE,146,1.0,-999.0,82,-99.99,,,0.00,0,weatherlink.com 1.10,2013-04-08 01:50:00,
2013-04-07 22:05:00,47.1,42.0,30.03,WSW,239,2.0,-999.0,82,-99.99,,,0.00,0,weatherlink.com 1.10,2013-04-08 02:05:00,
2013-04-07 22:20:00,46.9,42.0,30.02,South,190,5.0,-999.0,83,-99.99,,,0.00,0,weatherlink.com 1.10,2013-04-08 02:20:00,
2013-04-07 22:35:00,46.7,42.0,30.02,South,173,6.0,-999.0,84,-99.99,,,0.00,0,weatherlink.com 1.10,2013-04-08 02:35:00,
2013-04-07 22:50:00,46.5,42.0,30.01,East,81,2.0,-999.0,84,-99.99,,,0.00,0,weatherlink.com 1.10,2013-04-08 02:50:00,
2013-04-07 23:05:00,46.6,42.0,30.01,SW,228,3.0,-999.0,85,-99.99,,,0.00,0,weatherlink.com 1.10,2013-04-08 03:05:00,
2013-04-07 23:20:00,46.7,43.0,30.00,South,180,5.0,-999.0,85,-99.99,,,0.00,0,weatherlink.com 1.10,2013-04-08 03:20:00,
2013-04-07 23:35:00,47.0,43.0,30.00,ESE,102,5.0,-999.0,85,-99.99,,,0.00,0,weatherlink.com 1.10,2013-04-08 03:35:00,
2013-04-07 23:50:00,47.5,43.0,30.00,SSW,207,7.0,-999.0,85,-99.99,,,0.00,0,weatherlink.com 1.10,2013-04-08 03:50:00,